Find Local Weather

World > North America > United States > New Jersey

Williamstown, New Jersey Regional Weather

Lat: 39.69N, Lon: 75W
Wx Zone: NJZ017
Warning FLW WEATHER ALERT - (More Info. Click Here) Warning
Feedback

Williamstown, NJ Regional Weather

Expires:201905232000;;341704
ASUS41 KPHI 231912
RWRPHI

REGIONAL WEATHER ROUNDUP
NATIONAL WEATHER SERVICE MOUNT HOLLY NJ
300 PM EDT THU MAY 23 2019

NOTE:  "FAIR" INDICATES FEW OR NO CLOUDS BELOW 12,000 FEET WITH NO
SIGNIFICANT WEATHER AND/OR OBSTRUCTIONS TO VISIBILITY.

 * = STATION DOES NOT REPORT PRECIPITATION (E.G. RAIN, SNOW, ETC.) 
        OR FOG.


NJZ015>026-232000-
SOUTHERN NEW JERSEY
  
CITY           SKY/WX    TMP DP  RH WIND       PRES   REMARKS
POMONA         PTSUNNY   72  60  66 S16G25    30.05F                  
WILDWOOD*      FAIR      78  63  59 S12       30.07F                  
MILLVILLE      FAIR      75  64  68 S6        30.04F                  
WRIGHTSTOWN    FAIR      69  59  70 S7        30.02F                  
MOUNT HOLLY    FAIR      70  62  76 S5        30.04F                  
TRENTON        FAIR      71  59  65 SW12      30.03F                  

$$

SKY/WX - Weather  TMP - Temperature  DP - Dew Point  RH - Relative Humidity
WIND - Wind Direction/Speed PRES - Barometric Pressure VSB - Visibility
WCI - Wind Chill Index E13G22 Wind - East Wind 13 mph/Gusts of 22 mph